Погода Бельцы

Погода Бельцы : погода сейчас, прогноз погоды и архив. Всё, что Вы хотите узнать о погоде Бельцы!

Поиск расширенной информации на нашем сайте:

Другие новости

Новости СМИ2

Главная страница сайта

Новости сайта

02.10.2013

Напоминаем, что на нашем новом сайте вы можете получить высокодетализированные прогнозы погоды по пунктам России, СНГ и мира (включающие важные для авиации метеовеличины, такие как направление и скорость ветра, видимость, явления погоды, количество и форма облачности, нижняя и верхняя граница облачности), а также ознакомиться с разнообразными материалами по авиационной метеорологии и подборкой полезных ссылок на эту тему.

Сайт Метеоцентр.Азия посвящён разработке технологий оптимизации авиаметеорологического обслуживания, включая проектирование и перспективное создание нескольких автоматизированных авиаметеорологических систем:
- система выпуска высокодетальных прогностических карт явлений погоды для нижнего воздушного пространства по России и ближнему зарубежью;
- система верификации прогнозов TAF (выпускаемых синоптиками официальных АМСГ РФ и ближнего зарубежья) и AUTOTAF (выпускаемых сайтом Метеоцентр.Азия) - выявление ошибок, онлайн-сопоставление с фактической погодой METAR, автоматическое внесение коррективов в прогнозы при резком отклонении фактической погоды от прогноза, подсчёт оправдываемости прогнозов по элементам и в целом;
- система обработки, анализа и отображения авиаметеорологической информации для применения провайдерами метеорологической информации.


Погода Бельцы - сегодня

Время (UTC), дата Ветер
(°,м/с) 
Видим.   Явления Облачность Т
(°С)
Тd
(°С)
f(%) Тe
(°С)
Pmin
(гПа)
dP
(гПа)
Po
(мм)
O2
(г/м3)
Тmin Tmax R s Состояние
почвы
03 19.01.17 тихо ()   10 км    ясно 
-11.2 -12 94 -11  1042.4  0.4  766  323           
06 19.01.17 тихо ()   10 км    ясно 
-12.3 -13.2 93 -12  1042.8  0.3  766  325  -14.4      равномерный
мокрый или
старый снег
100% 
09 19.01.17 тихо ()   10 км    ясно 
-10.6 -11.6 92 -11  1043.3  0.6  767  323           
12 19.01.17 тихо ()   10 км    ясно 
-6.6 -9.3 81 -7  1041.9  -1.1  766  317           
15 19.01.17 тихо ()   10 км    3/3 600 м 
[Sc]
-9.7 -10.5 94 -10  1041.3  -0.8  765  321           
18 19.01.17 тихо ()   0500 м  переохл. туман  ?/?  
-9.7 -10.3 95 -10  1040.9  -0.4  765  321    -6.3       
21 19.01.17 тихо ()   0500 м  переохл. туман  ?/?  
-10.9 -11.7 94 -11  1040.5  -0.5  764  322           
00 20.01.17 тихо ()   0500 м  переохл. туман  ?/?  
-12.4 -13.4 92 -12  1039.8  -0.8  764  324           
03 20.01.17 тихо ()   0500 м  переохл. туман  ?/?  
-13.5 -14.7 91 -14  1039.1  -0.8  763  325           
06 20.01.17 тихо ()   0200 м  переохл. туман  ?/?  
-14.3 -15.4 91 -14  1038.4  -0.7  763  326  -14.5      равномерный
мокрый или
старый снег
100% 
09 20.01.17 тихо ()   1000 м  слаб. снег{туман}  10/10 300 м 
[Sc]
-11.7 -12.6 93 -12  1038.1  -0.1  763  322           
12 20.01.17 тихо ()   1000 м  в посл. час снег{туман}  10/10 300 м 
[Frnb|Ns]
-9.5 -10.2 95 -10  1036  -1.9  761  319           
15 20.01.17 220 (ЮЗ) 2000 м  дымка  9/8 600 м средняя 
[Sc|Ac trans]
-8.6 -9.3 95 -8  1034.3  -1.6  760  317           
18 20.01.17 220 (ЮЗ) 2000 м  дымка  9/9 600 м 
[Sc]
-7.9 -8.4 96 -8  1033.5  -0.7  760  316    -7.9  0.2     
21 20.01.17 тихо ()   2000 м  дымка  9/6 600 м средняя 
[Sc|Ac trans]
-5.7 -6.1 97 -6  1032.8  -0.5  759  313           
00 21.01.17 240 (ЮЗ) 2000 м  дымка  10/8 600 м средняя 
[Sc|Ac As]
-3.6 -4.1 96 -3  1031.2  -1.4  758  310           
03 21.01.17 тихо ()   2000 м  дымка  10/8 600 м средняя 
[Sc|Ac As]
-2.6 -2.7 99 -3  1029.9  -1.2  757  308           
06 21.01.17 240 (ЮЗ) 2000 м  в посл. час снег  10/10 600 м 
[Sc]
-0.8 -0.8 100 1029.5  -0.3  757  306  -8.2    0.0  равномерный
мокрый или
старый снег
100% 
09 21.01.17 270 (З) 2000 м  дымка  10/5 600 м кучево-дожд., средняя 
[Cb cap|Ac As]
+0.1 -0.2 98 -1  1030.4  758  305           
12 21.01.17 270 (З) 10 км    10/6 600 м средняя 
[Sc|Ac As]
+1 -0.2 92 1029  -1.3  757  304           
15 21.01.17 270 (З) 10 км    10/8 600 м средняя 
[Sc|Ac As]
+1 +0 93 -1  1029.4  0.4  757  304           
18 21.01.17 280 (З) 10 км    10/6 600 м средняя 
[Sc|Ac As]
+1.4 +0.1 91 1030.6  1.2  758  304    +1.4       
21 21.01.17 310 (СЗ) 10 км    10/8 600 м кучево-дожд., средняя 
[Cb cap|Ac As]
+1.4 +0.2 92 1032.5  1.9  759  304           
00 22.01.17 280 (З) 10 км  {дождь}  9/8 600 м средняя 
[Sc|Ac trans]
+0.9 +0.5 97 +2  1033.8  1.2  760  305           
03 22.01.17 300 (СЗ) 10 км  в посл. час морось  10/10 300 м 
[St]
+0.9 +0.3 96 +2  1034.6  0.8  761  306           
Время (UTC), дата Ветер
(°,м/с) 
Видим.   Явления Облачность Т
(°С)
Тd
(°С)
f(%) Тe
(°С)
Pmin
(гПа)
dP
(гПа)
Po
(мм)
O2
(г/м3)
Тmin Tmax R s Состояние
почвы

Для получения пояснительной информации подведите курсор к названию столбца.

ПОГОДА Бельцы - архив

Всё, что Вы хотите узнать о погоде Бельцы - удобно и подробно!

Выберите нужную дату (начиная с 1 января 2015* года) и нажмите кнопку "Найти".
Будут отображены архивные сводки погоды по пункту Бельцы, начиная с указанной даты.


Отображать данные в формате CSV (для использования в таблицах Excel)


Внимание! Наш архив погоды предназначен исключительно для личного некоммерческого использования в познавательных целях. Если Вам необходимы официальные справки о состоянии погоды (для производственных, юридических, коммерческих и т.п. целей), обращайтесь в органы Росгидромета.

*Примечание: данная дата относится к архиву по метеостанциям СССР (Россия, СНГ, Балтия).
Архив по метеостанциям Зарубежной Европы и Азии (кроме Китая) хранится 10 дней, по другим регионам земного шара (Китай, Африка, Америка, Австралия, Океания) - 1 день.

Бельцы - район местоположения метеостанции


Название, широта, долгота, высота метеостанции:
Бельцы 47.8°ш. 27.9°д. 102 м над ур. моря [Молдавия]

Дополнительная информация

В oтличие oт бoльшинства пoгoдных сайтoв мы публикуем пoдрoбную метеoинфoрмацию в детальнoм прoфессиoнальнoм фoрмате.

Характеристики температуры и влажнoсти вoздуха измеряются на высoте 2 м в тени вдали oт зданий и деревьев.
Скoрoсть ветра измеряется на высoте 10 м (на урoвне рoста челoвека скoрoсть ветра ниже в 1.5-2 раза). Если метеoстанция нахoдится в гoрoде или в лесу, тo скoрoсть ветра занижена на 2-4 м/с пo сравнению с oткрытым местoм. Скoрoсть ветра над акватoриями крупных рек и oзёр, а также на вершинах хoлмoв на 2-5 м/с выше, чем в oбычных услoвиях.
Атмoсфернoе давление в разных тoчках местнoсти мoжет значительнo oтличаться oт давления на метеoстанции, в зависимoсти oт услoвий рельефа (при пoдъёме на 10 м давление пoнижается примернo на 1 мм рт.ст.).